Overview Statistics Trail Chart Weather Telemetry Raw packets
 

This is the latest recevied weather packets stored in our database for station/object K1NOT-WX. If no packets are shown the sender has not sent any weather packets the latest 10 day(s).

<< 8 9 10 11 12 13 14 >>
Time Temp. Humidity Pressure Rain* Wind** Luminosity Snow
1777539432 10° C 83% 1013.2 hPa 0 mm - - -
1777538532 10.56° C 82% 1013.2 hPa 0 mm - - -
1777537632 10.56° C 83% 1012.9 hPa 0 mm - - -
1777536732 10.56° C 82% 1013.2 hPa 0 mm - - -
1777535832 10.56° C 81% 1013.2 hPa 0 mm - - -
1777534932 11.11° C 80% 1013.2 hPa 0 mm - - -
1777534032 11.11° C 79% 1013.5 hPa 0 mm - - -
1777533132 11.67° C 78% 1013.2 hPa 0 mm - - -
1777532232 11.67° C 79% 1013.5 hPa 0 mm - - -
1777531332 11.11° C 79% 1013.5 hPa 0 mm - - -
1777530432 11.67° C 78% 1013.5 hPa 0 mm - - -
1777529532 11.11° C 81% 1013.5 hPa 0 mm - - -
1777528632 11.67° C 79% 1013.5 hPa 0 mm - - -
1777527732 12.22° C 77% 1013.5 hPa 0 mm - - -
1777526832 12.22° C 76% 1013.5 hPa 0 mm - - -
1777525932 12.78° C 76% 1013.5 hPa 0 mm - - -
1777525032 12.78° C 76% 1013.5 hPa 0 mm - - -
1777524132 13.33° C 75% 1013.5 hPa 0 mm - - -
1777523232 13.33° C 75% 1013.5 hPa 0 mm - - -
1777522332 13.89° C 74% 1013.5 hPa 0 mm - - -
1777521432 13.89° C 73% 1013.2 hPa 0 mm - - -
1777520532 13.89° C 71% 1013.2 hPa 0 mm - - -
1777519632 14.44° C 70% 1013.2 hPa 0 mm - - -
1777518732 14.44° C 70% 1012.9 hPa 0 mm - - -
1777517832 15.56° C 67% 1012.9 hPa 0 mm - - -

* Rain latest hour (hover to see other rain measurements)
** Current wind speed in m/s (hover to see current wind gust speed)